Location: Arborea
(39.7744°N, 8.5819°E)
Time: 11:44:20
(UTC+00:00)

Cosmos 332 Rocket - Pass Details

Date: 31 May 2022
Orbit: 681 x 703 km, 74.0° (Epoch: 03 July)

Event Time Altitude Azimuth Distance (km) Brightness Sun altitude
Exits shadow 00:30:29 29° 293° (WNW) 1,248 5.1 -26.4°
Maximum altitude 00:30:38 29° 297° (WNW) 1,247 5.1 -26.4°
Drops below altitude 10° 00:34:48 10° 357° (N) 2,129 7.2 -26.1°
Sets 00:37:23 0° 9° (N) 3,050 8.4 -26.0°
